Regional Weather Roundup
Issued by NWS

Home | Current Version | Previous Version | Text Only | Print | Product List | Glossary On
Versions: 1 2 3 4 5 6 7 8 9 10 11 12 13 14 15 16 17 18 19 20 21 22 23 24 25 26 27 28 29 30 31 32 33 34 35 36 37 38 39 40 41 42 43 44 45 46 47 48 49 50
000
ASUS43 KMPX 012210
RWRMN
WEATHER ROUNDUP FOR MINNESOTA
NATIONAL WEATHER SERVICE TWIN CITIES/CHANHASSEN MN
500 PM CDT WED OCT 01 2014


NOTE: "FAIR" INDICATES FEW OR NO CLOUDS BELOW 12,000 FEET WITH NO
SIGNIFICANT WEATHER AND/OR OBSTRUCTIONS TO VISIBILITY. N/A MEANS
CURRENT SKY AND/OR WEATHER CONDITIONS ARE NOT AVAILABLE.

MNZ060>063-068>070-012300-
   Twin Cities Metro

CITY           SKY/WX    TMP DP  RH WIND       PRES   REMARKS
TWIN CITIES    CLOUDY    56  54  93 SE7       29.78R
ST PAUL        CLOUDY    56  54  93 S9        29.79R
CRYSTAL        CLOUDY    57  53  86 S7        29.77R
BLAINE         CLOUDY    57  55  94 S6        29.78R FOG
LAKEVILLE      CLOUDY    55  55 100 S3        29.78R FOG
EDEN PRAIRIE   CLOUDY    58  55  90 SE6       29.76S
SOUTH ST PAUL  CLOUDY    56  54  94 SE5       29.78R FOG
LAKE ELMO      CLOUDY    55  54  94 S7        29.79S FOG
$$
MNZ001>005-007-008-013>017-022>024-027-028-012300-
   Northwest Minnesota

CITY           SKY/WX    TMP DP  RH WIND       PRES   REMARKS
BEMIDJI        CLOUDY    57  53  85 SE14      29.67S
HALLOCK        PTSUNNY   64  52  63 W15G23    29.57R
ROSEAU         PTSUNNY   61  55  82 SW13      29.58R
WARROAD        CLOUDY    64  55  72 SW13G24   29.57S
THIEF RVR FALL CLOUDY    64  50  59 SW16G22   29.62R
CROOKSTON      CLOUDY    64  54  68 W17G23    29.64R
FOSSTON        CLOUDY    64  52  63 W12G17    29.65R
DETROIT LAKES  MOSUNNY   66  52  59 W12       29.68S
PARK RAPIDS    CLOUDY    56  54  93 S14       29.69S FOG
MAHNOMEN       CLOUDY    65  51  60 W18       29.65R
$$
MNZ006-009>011-018-025>026-012300-
   North Central Minnesota

CITY           SKY/WX    TMP DP  RH WIND       PRES   REMARKS
BAUDETTE       LGT RAIN  57  53  86 S9        29.62S
FLAG ISLAND    CLOUDY    57  54  88 S25       29.55S
INTL FALLS     CLOUDY    54  50  86 S8        29.68R
WASKISH        CLOUDY    57  54  88 S7G18     29.65R
BIG FORK       CLOUDY    54  50  87 S9        29.71F
LONGVILLE      CLOUDY    54  52  94 SE6       29.72S
GRAND RAPIDS   CLOUDY    52  48  87 S12       29.74R
CRANE LAKE     CLOUDY    48  48 100 S6        29.74S
ORR            DRIZZLE   50  46  87 SE9       29.70F
COOK           CLOUDY    50  48  93 SE8       29.74S
WALKER         CLOUDY    54  51  92 S10       29.70R
$$
MNZ012-019>021-037-012300-
   Northeast Minnesota

CITY           SKY/WX    TMP DP  RH WIND       PRES   REMARKS
DULUTH         CLOUDY    50  48  93 SE8       29.78R FOG
ELY            RAIN      48  46  93 S12       29.76F
HIBBING        LGT RAIN  51  48  89 SE9       29.75F
DULUTH HARBOR  DRIZZLE   52  50  93 E7        29.80R
TWO HARBORS    RAIN      48  43  81 E6        29.78F
SILVER BAY     RAIN      46  46 100 E9        29.78F
GRAND MARAIS     N/A     49  47  93 CALM      29.84S
G MARAIS ARPRT RAIN      45  43  93 CALM      29.83S
$$
MNZ029>031-032-039>041-046>048-054>057-064-012300-
   West Central Minnesota

CITY           SKY/WX    TMP DP  RH WIND       PRES   REMARKS
FERGUS FALLS   PTSUNNY   68  48  49 W15       29.69R
WHEATON        SUNNY     68  50  52 W13G18    29.72R
MORRIS         MOSUNNY   73  54  49 W7        29.69R
ALEXANDRIA     MOSUNNY   62  57  83 S13       29.72R
ELBOW LAKE     PTSUNNY   70  53  54 W10       29.69R
WADENA         CLOUDY    57  55  94 S9        29.70S FOG
GLENWOOD       PTSUNNY   64  59  82 SE8       29.72S
APPLETON       MOSUNNY   75  48  38 W9        29.69R
BENSON         PTSUNNY   66  59  77 S8        29.71S
ORTONVILLE     MOSUNNY   73  48  40 W13       29.71R
MADISON        SUNNY     75  52  43 W10       29.70R
WILLMAR        FAIR      68  55  64 S8        29.74R
$$
MNZ033>034-036-042>043-049>051-058-059-012300-
   Central Minnesota

CITY           SKY/WX    TMP DP  RH WIND       PRES   REMARKS
ST CLOUD       CLOUDY    58  53  84 S9        29.75R
SAUK CENTRE    FAIR      60  56  89 SE6       29.72S
PAYNESVILLE    MOSUNNY   61  54  79 E9        29.74S
AITKIN         CLOUDY    55  48  76 S8        29.74R
PINE RIVER     CLOUDY    54  54 100 S10       29.77R FOG
BRAINERD       CLOUDY    53  51  93 S8        29.75R
STAPLES        CLOUDY    55  54  94 S7        29.72S FOG
LONG PRAIRIE   CLOUDY    57  54  88 SE7       29.73S
LITTLE FALLS   CLOUDY    55  50  82 SE7       29.74S
LITCHFIELD     MOSUNNY   63  57  82 SE8       29.76R
BUFFALO        CLOUDY    56  52  85 SE5       29.78R
MAPLE LAKE     CLOUDY    58  55  89 SE5       29.77R
$$
MNZ037-044-045-052-053-012300-
   East Central Minnesota

CITY           SKY/WX    TMP DP  RH WIND       PRES   REMARKS
PRINCETON      CLOUDY    55  54  94 S5        29.77S
MORA           CLOUDY    50  48  93 S5        29.79S
CAMBRIDGE      CLOUDY    55  48  76 S8        29.77R
RUSH CITY      CLOUDY    53  50  92 S7        29.78R
MOOSE LAKE     CLOUDY    50  48  93 S6        29.76R
HINCKLEY       CLOUDY    52  52 100 S8        29.78S
CLOQUET        DRIZZLE   50  48  93 SE6       29.76F
MCGREGOR       CLOUDY    50  50 100 S6        29.76S
$$
MNZ071>073-080-081-089-090-097-098-012300-
   Southwest Minnesota

CITY           SKY/WX    TMP DP  RH WIND       PRES   REMARKS
MONTEVIDEO     MOSUNNY   66  61  82 S7        29.71R
GRANITE FALLS  PTSUNNY   68  60  76 NE6       29.72R
CANBY          MOSUNNY   73  53  48 NW10      29.72R
MARSHALL       MOSUNNY   75  52  43 NW14      29.69R
REDWOOD FALLS  MOSUNNY   70  57  63 SE8       29.71S
OLIVIA         LGT RAIN  68  57  68 SE7       29.72S
PIPESTONE      MOSUNNY   70  57  64 CALM      29.73F
WINDOM         SUNNY     72  57  60 S6        29.73S
WORTHINGTON    MOSUNNY   72  57  60 S8        29.73F
JACKSON        SUNNY     72  55  56 S7        29.75S
TRACY          PTSUNNY   72  61  68 S7        29.71S
SLAYTON        PTSUNNY   71  54  54 W12       29.73R
$$
MNZ065>067-074>077-082>085-091>093-012300-
   South Central Minnesota

CITY           SKY/WX    TMP DP  RH WIND       PRES   REMARKS
MANKATO        CLOUDY    61  54  77 SW7       29.77R
NEW ULM        SUNNY     64  59  82 S8        29.74S
ST JAMES       SUNNY     66  57  72 SE5       29.75S
FAIRMONT       SUNNY     70  57  64 CALM      29.75S
GLENCOE        CLOUDY    60  57  89 S3        29.75S
FARIBAULT      CLOUDY    59  57  94 S5        29.78R FOG
OWATONNA       PTSUNNY   61  55  82 S6        29.78S FOG
WASECA         CLOUDY    59  54  82 SE3       29.78S HAZE
ALBERT LEA     CLOUDY    61  59  94 S5        29.78R FOG
$$
MNZ078>079-086>088-094>096-012300-
   Southeast Minnesota

CITY           SKY/WX    TMP DP  RH WIND       PRES   REMARKS
ROCHESTER      CLOUDY    58  56  93 S7        29.80S FOG
RED WING       CLOUDY    57  55  94 SE6       29.78S FOG
STANTON        CLOUDY    60  56  87 S3        29.77R FOG
DODGE CENTER   CLOUDY    61  57  88 S9        29.78S
WINONA         CLOUDY    59  55  88 SE5       29.81S
AUSTIN         CLOUDY    61  57  88 S6        29.78S
PRESTON        CLOUDY    57  53  86 CALM      29.81S
$$
ABBREVIATIONS USED IN REMARKS
   TC - TEMPERATURES IN CELSIUS
  WCI - WIND CHILL INDEX
   HX - HEAT INDEX
  VSB - VISIBILITY
$$



USA.gov is the U.S. government's official web portal to all federal, state and local government web resources and services.